FENGYUN 1C DEB

Satellite information

Favourite Embed

Satellite Type and Status

DEBRISIN ORBIT

Key statistics

Satellite FENGYUN 1C DEB at a glance.

Uptime

9715

Days in orbit

Revolutions

≈ 13.9

Per day

Orbit

SSO

Sun Synchronous Orbit

Inclination

99.0

Latest

Satellite identification and parameters

Extended collection of information and parameters for FENGYUN 1C DEB.

Object identification

Identified? True

Debris? True

Object name: FENGYUN 1C DEB

International designator: 1999-025TF

Object number (NORAD): 30150

Object ID (CCSDS): 30150

Country: PEOPLES REPUBLIC OF CHINA (PRC)

Current information (Y/N): Y

RCS size: SMALL

Orbital parameters

Period: 103.852 minutes

Inclination: 98.9942 deg

SMA: 7318.727 km

Apoapsis: 1047.814 km

Periapsis: 833.37 km

RAAN: 123.1083 deg

Eccentricy: 0.01465033

Argument of periapsis: 335.0781 deg

Mean anomaly: 205.3661 deg

Mean motion: 13.86594439 rev/day

Mean motion (dot): 0.00000825 rev/day2

B* drag term: 0.00068681198 1/REarth

Two-line elements (TLE)

Creation date: Dec. 13, 2025, 5:47 p.m.

Reference frame: TEME

Reference center: EARTH

Epoch: Dec. 13, 2025, 3:09 a.m. UTC

TLE line 0: 0 FENGYUN 1C DEB

TLE line 1: 1 30150U 99025TF 25347.13165906 .00000825 00000-0 68681-3 0 9993

TLE line 2: 2 30150 98.9942 123.1083 0146503 335.0781 205.3661 13.86594439954638

Live tracking on map

Real-time ground track for satellite FENGYUN 1C DEB.

In-orbit conjunctions

A list of the most updated potential collisions computed for object FENGYUN 1C DEB.

Target Orbit TCA Probability of collision Miss distance Type
TRANSIT 2A LEO 2025-08-06 23:44:51 0.002284857 214.0 (m) PAYLOAD
CZ-6A DEB LEO 2024-11-10 01:19:32 0.00164898 144.0 (m) DEBRIS
NOAA 16 DEB SSO 2024-06-25 07:16:49 0.0001146838 172.0 (m) DEBRIS
COSMOS 374 DEB LEO 2024-06-12 06:21:00 0.0001504626 479.0 (m) DEBRIS

Associated space launch

Chinese polar orbiting meteorological satellite

FENGYUN 1C DEB was lifted into orbit during the mission ‘Long March 4B | Feng Yun 1C’, on board a Long March 4B space rocket.

The launch took place on May 10, 1999, 1:33 a.m. from Launch Complex 7.

For more information about the launch, click the button.

Launch to space Long March 4B | Feng Yun 1C
Long March 4B | Feng Yun 1C

Agency: N/A

Status: Launch Successful

Launch date: May 10, 1999, 1:33 a.m. UTC

Rocket: Long March 4B

Launch pad: Launch Complex 7

Location: Taiyuan Satellite Launch Center, People's Republic of China

...

Latest news about this satellite

There are no fresh news available about this satellite. Check back as we update our databases every day.


Newsletter sign-up

Weekly statistics, charts and insights to help you stay on top of the space industry.